Location: Dana
(41.8364°N, 106.7042°W)
Time: 15:06:12
(UTC+00:00)

Transit 2A - Pass Details

Date: 12 May 2026
Orbit: 595 x 948 km, 66.7° (Epoch: 8 June)

Event Time Altitude Azimuth Distance (km) Brightness Sun altitude
Rises 22:04:46 0° 173° (S) 3,599 9.6 44.9°
Reaches altitude 10° 22:07:46 10° 160° (SSE) 2,645 8.9 44.4°
Maximum altitude 22:12:40 25° 108° (ESE) 1,760 7.8 43.5°
Drops below altitude 10° 22:17:23 10° 55° (NE) 2,544 8.4 42.7°
Sets 22:20:12 0° 43° (NE) 3,433 9.0 42.2°
